Theta_e
339 339 338 335 334 337 336 336 339 339 339 340 339 338 338 337 336 332 329 331 333 333 332 331 333 336 337 337 336 337 337 335 335 336 337 336 336 336 336 336 336 336 336 335 335 334 333 334 334 333 332 332 331 332 333 332 332 332 333 332 331 331 332 334 334 333 333 333 332 332 331 331 330 329 327 327 327 327 328 329 330 330 330 331 331
338 337 336 335 334 336 336 337 338 339 340 340 339 338 338 337 336 331 329 332 335 336 336 336 336 337 338 338 338 337 337 336 336 336 336 337 336 336 336 335 335 335 335 335 335 334 334 334 334 333 333 334 333 332 332 332 332 332 332 332 330 330 331 332 332 331 332 331 331 331 331 331 331 330 329 328 326 326 328 328 329 330 330 331 331
338 338 336 335 335 336 336 338 338 338 339 339 339 339 338 339 335 329 330 336 338 338 339 339 339 339 338 338 338 337 336 336 337 337 337 337 336 335 335 335 335 335 335 335 334 334 334 334 334 334 333 333 333 333 333 333 333 333 333 333 332 332 332 332 331 331 331 332 331 331 331 331 331 332 332 331 328 326 327 328 329 329 329 330 330
339 339 338 336 337 338 337 338 338 337 338 338 339 339 339 339 335 330 332 337 339 339 339 339 339 338 339 338 337 337 337 337 337 337 336 336 335 335 334 334 335 335 335 335 334 334 334 333 333 334 334 333 333 334 334 333 333 333 333 333 332 333 333 333 333 332 332 332 331 331 331 331 331 332 333 333 332 331 329 328 328 328 327 328 329
340 340 339 338 338 338 337 339 338 337 337 338 339 339 339 339 335 333 334 337 339 339 339 339 338 338 338 338 337 337 337 336 336 336 336 335 335 335 334 334 334 335 335 335 334 334 333 334 333 333 334 334 334 334 334 334 333 333 332 332 332 332 333 334 333 332 332 332 332 331 331 331 331 331 331 332 333 334 333 331 330 329 328 328 328
341 340 339 338 338 338 338 338 337 337 337 338 338 338 338 338 338 336 337 338 339 339 339 338 338 338 338 337 337 337 336 336 337 337 336 336 335 335 335 334 334 335 335 335 335 334 334 334 334 334 333 333 334 333 333 334 333 332 332 332 332 332 332 332 332 332 331 331 331 331 331 331 332 332 332 331 332 333 334 334 333 330 330 329 329
341 340 339 338 338 337 336 336 336 337 337 337 337 338 339 339 339 339 339 339 339 339 338 337 337 338 337 337 336 336 337 336 337 335 334 334 334 334 335 335 334 334 335 335 335 334 334 333 333 333 331 332 333 332 333 333 332 332 332 332 331 331 331 331 331 331 331 330 330 331 331 331 332 332 332 331 331 332 333 333 333 332 331 331 330
341 340 339 338 337 337 336 336 336 336 337 338 338 338 339 339 339 339 339 338 338 337 337 337 337 338 338 336 335 336 336 335 334 333 333 333 333 333 334 334 334 334 334 333 333 332 332 331 332 331 330 330 330 331 331 332 332 332 331 331 331 330 330 330 330 330 330 330 330 330 330 331 332 332 332 332 332 332 332 332 332 333 333 332 331
341 340 338 337 337 338 337 336 335 335 337 338 338 339 339 339 339 338 337 337 337 337 337 338 337 337 337 335 335 335 335 333 333 333 333 333 333 333 333 333 333 332 332 331 331 331 330 329 328 329 329 329 328 328 329 330 330 330 329 329 330 330 330 330 330 330 330 330 330 330 330 331 331 331 331 332 332 332 332 331 331 332 333 333 333
340 339 339 338 337 338 338 336 335 336 338 339 339 340 339 339 339 338 337 337 337 336 337 337 336 336 336 335 334 334 333 333 333 332 332 332 332 332 332 331 331 331 331 330 329 328 327 325 324 325 327 326 325 326 328 328 328 328 328 328 329 329 329 329 329 329 329 329 330 330 330 330 330 330 331 331 331 332 331 330 330 331 332 332 332
340 339 339 338 337 338 337 336 336 337 338 338 339 339 339 338 338 337 337 337 336 336 336 335 335 334 334 334 334 333 332 332 332 332 332 331 331 331 331 330 330 329 329 328 326 323 322 321 320 321 323 324 325 326 327 328 328 328 327 327 328 328 328 328 327 328 329 329 329 329 329 330 330 330 330 330 331 331 330 330 329 330 330 330 331
339 339 339 338 337 338 337 336 338 338 338 338 338 338 338 337 337 337 336 336 335 334 334 334 333 333 333 333 332 332 331 331 331 331 330 330 330 329 329 329 328 327 326 324 322 320 320 319 318 319 321 321 322 322 323 325 326 327 327 327 328 328 328 327 327 327 328 329 329 329 328 329 329 329 330 330 330 331 330 330 330 329 330 329 329
339 339 338 337 337 337 336 337 338 338 338 338 337 337 336 336 336 335 334 334 333 333 333 332 332 332 331 331 331 331 330 330 330 329 328 328 328 327 326 326 325 324 322 320 319 318 318 318 318 318 318 318 318 318 318 320 321 323 325 326 327 328 327 327 327 327 327 327 328 329 329 328 328 329 329 329 330 330 330 330 330 329 329 329 329
339 339 338 336 337 337 336 337 337 337 337 336 336 335 335 335 335 334 333 333 332 332 332 331 330 330 330 330 329 329 328 328 327 327 326 326 325 325 324 323 323 322 320 318 318 317 317 317 317 317 317 317 317 317 317 317 318 319 322 323 325 326 327 327 327 327 327 327 328 329 329 328 329 329 328 329 329 329 329 330 329 329 329 329 328
339 339 337 336 336 336 336 336 336 335 335 335 335 334 334 334 333 333 332 331 331 330 330 329 329 329 329 328 328 327 326 326 326 325 324 323 323 322 321 320 320 320 319 317 317 316 316 316 316 316 316 316 316 316 316 318 318 317 318 319 321 324 326 326 326 326 326 326 327 328 328 328 328 328 328 328 328 329 329 329 329 329 329 328 328
339 338 337 336 336 336 336 335 335 334 334 334 334 334 333 333 332 331 331 330 329 329 329 328 328 328 328 327 326 325 324 324 323 322 321 320 320 320 320 318 318 318 317 316 316 316 316 316 315 315 315 315 315 315 316 317 317 315 316 318 319 322 324 324 324 325 325 326 326 327 327 327 328 328 328 328 327 327 328 328 328 328 329 329 328
339 337 336 336 336 335 335 333 332 333 333 333 334 333 333 332 331 330 330 329 328 328 328 327 327 327 326 325 323 321 320 321 320 319 319 319 318 318 318 317 317 316 316 316 315 315 315 315 315 315 315 315 315 315 315 315 315 315 316 317 318 319 320 320 321 323 323 325 325 326 327 327 327 327 328 328 327 328 328 328 328 328 328 329 328
338 337 336 334 334 333 332 331 330 331 332 332 333 332 331 331 330 330 329 328 327 327 326 326 325 324 324 322 320 319 319 319 319 318 318 318 317 317 316 316 316 315 315 315 315 315 315 314 314 314 314 314 314 314 314 314 315 315 315 315 316 317 317 317 319 321 321 322 324 326 327 327 327 327 327 328 328 328 328 328 328 328 328 328 328
336 335 333 332 332 331 331 331 330 330 331 332 331 331 330 330 329 328 328 327 326 325 324 324 323 322 321 320 319 319 318 318 317 317 317 316 316 315 315 315 315 314 314 314 314 314 314 314 314 314 314 314 314 314 314 314 315 315 315 315 316 316 317 317 318 320 320 320 321 323 325 326 327 327 327 328 328 328 328 328 328 329 328 329 328
334 331 331 331 332 331 331 331 331 330 331 331 330 330 330 330 329 328 327 326 325 324 323 322 321 320 320 319 318 318 317 317 316 316 316 315 315 315 314 314 314 314 314 314 314 313 313 313 313 314 314 314 315 315 315 315 315 316 316 316 317 317 317 319 319 320 320 319 319 320 320 323 326 327 327 327 328 328 328 327 328 329 328 329 328
332 330 331 332 332 331 331 331 330 329 330 330 329 330 330 329 327 326 325 324 323 323 321 320 320 319 318 318 317 317 317 316 315 315 315 314 314 314 314 313 313 313 313 313 313 313 313 313 314 315 315 316 316 316 316 316 315 316 316 317 318 318 320 321 321 321 320 319 319 319 319 320 323 325 325 326 326 327 327 328 328 329 328 328 327
331 331 331 331 331 331 331 330 329 328 328 329 329 329 328 326 324 323 322 322 321 321 320 319 319 318 318 316 315 315 316 315 315 314 314 314 313 313 313 313 313 313 313 313 313 313 313 314 315 316 316 316 316 316 316 316 316 316 317 317 319 320 322 322 322 322 321 320 319 320 319 319 320 322 323 324 325 326 328 328 328 328 329 328 328
330 331 330 330 330 330 330 330 328 328 329 329 329 327 325 323 322 321 321 320 320 320 319 318 318 317 316 315 315 315 315 314 314 314 313 313 313 313 313 313 313 313 313 313 313 313 314 314 315 316 316 316 316 316 316 316 316 317 318 318 319 320 321 322 322 321 321 321 320 320 320 320 321 321 323 324 325 326 328 328 327 327 328 328 328
330 329 328 328 329 330 330 329 329 329 328 328 326 324 322 321 321 321 320 320 319 318 318 317 316 316 315 315 315 314 314 313 313 313 313 313 313 313 313 312 312 313 313 313 314 314 315 315 315 316 316 316 316 316 315 315 316 317 318 319 319 320 320 321 321 321 321 321 321 321 321 321 322 322 323 324 325 326 327 328 328 327 327 328 328
328 327 326 327 328 329 329 329 329 328 327 325 323 321 320 320 320 320 319 319 318 317 317 316 315 315 315 314 314 313 313 313 313 312 312 312 312 312 312 312 312 313 313 313 314 315 315 315 316 316 315 315 315 315 315 315 316 317 318 319 320 320 321 321 321 321 321 321 321 321 322 322 323 323 324 324 325 325 326 327 327 327 327 328 327
326 325 325 325 326 326 326 327 328 326 324 322 321 320 320 319 319 318 318 318 317 316 315 314 314 314 314 313 313 312 313 312 312 312 311 311 311 311 312 312 313 313 313 314 314 315 315 315 315 315 315 315 315 315 315 315 315 316 317 319 320 320 321 321 322 322 322 322 322 322 322 322 322 323 324 324 324 324 325 325 326 326 326 327 326
325 325 324 324 323 323 323 324 325 324 321 320 319 319 319 318 318 317 316 316 315 315 314 314 314 314 313 312 312 312 312 311 311 311 311 311 311 311 312 312 313 313 313 314 314 315 315 315 315 314 314 314 314 314 314 314 314 314 315 316 318 319 319 320 321 321 321 322 322 322 322 322 322 322 323 323 323 323 324 324 324 325 325 325 325
324 324 323 323 322 321 321 322 322 320 319 318 318 318 318 317 316 316 315 314 314 314 313 313 313 313 312 312 311 311 310 310 310 310 311 311 311 311 312 312 313 313 314 314 314 314 313 312 313 313 313 313 313 313 313 313 313 313 313 314 315 316 317 317 319 320 320 320 320 320 321 321 321 321 322 322 323 323 323 323 323 323 324 324 324
324 323 322 322 321 320 320 320 319 318 317 317 318 317 316 316 316 315 314 313 313 313 312 312 312 311 311 311 310 309 309 310 310 311 311 311 311 311 312 312 313 314 314 313 312 313 312 311 311 312 312 312 312 312 312 312 312 313 313 313 314 314 315 316 317 318 318 317 317 318 319 320 320 320 321 321 321 321 321 322 321 321 322 322 322
323 322 321 320 320 320 319 318 317 317 317 317 317 316 316 316 315 313 312 312 312 312 312 311 311 310 310 310 309 309 309 310 310 311 311 311 311 311 311 312 312 313 312 311 311 311 311 310 310 311 311 311 311 311 311 311 312 312 312 312 313 313 314 314 315 315 315 315 315 315 316 317 317 318 319 319 318 318 319 319 320 320 320 321 321
322 321 320 319 318 319 318 317 316 316 316 316 316 316 316 315 313 311 311 312 312 312 311 311 311 310 309 309 309 308 309 310 310 310 310 310 310 310 310 310 311 311 310 310 310 310 310 309 309 309 310 310 310 310 310 311 311 311 312 312 312 312 312 312 312 313 313 313 313 314 314 315 315 316 316 316 315 315 316 316 316 317 318 319 320
321 320 319 318 318 318 317 316 316 316 316 316 316 316 315 314 312 311 312 312 311 311 311 310 310 309 308 308 308 308 308 309 309 309 309 308 309 309 309 309 309 309 309 309 309 309 308 308 308 308 308 308 309 309 309 310 310 311 311 311 310 310 310 310 310 311 311 311 311 312 312 313 313 313 314 314 314 314 314 314 314 314 315 316 317
319 319 318 318 317 317 317 316 316 316 316 316 316 315 314 312 311 311 312 311 311 311 311 309 308 307 307 307 307 307 307 307 307 307 308 308 308 308 308 308 308 307 307 308 308 308 307 306 306 307 307 307 308 308 309 309 309 310 310 310 309 309 308 308 309 309 309 309 309 310 310 310 310 310 311 312 312 313 313 313 313 313 313 313 314
319 319 318 317 317 317 317 317 316 316 316 315 314 314 313 311 310 311 311 311 311 310 309 308 307 306 306 306 307 307 307 307 307 307 307 307 307 307 306 306 306 306 306 306 306 306 306 306 306 306 306 306 306 307 308 308 309 309 309 308 308 307 307 307 307 307 307 307 307 308 308 308 308 308 308 309 309 311 312 311 311 312 311 311 312
318 318 318 318 318 318 317 317 316 316 315 314 313 312 311 310 311 311 311 311 310 309 307 306 306 306 305 306 306 307 307 306 307 306 306 306 306 306 306 306 306 306 305 305 305 305 305 305 305 304 304 305 305 306 307 307 308 308 308 307 306 306 306 306 306 306 306 306 306 306 306 306 306 307 307 307 307 308 309 310 310 310 310 310 310
319 318 318 318 318 317 316 316 316 314 313 313 312 311 310 310 311 311 311 310 309 307 306 306 305 305 305 306 306 306 306 306 306 306 306 305 305 305 305 305 305 305 304 304 304 304 304 303 304 304 303 303 303 304 305 306 307 307 307 306 305 305 305 305 305 305 305 305 305 305 305 305 305 306 306 306 306 307 308 308 308 308 308 308 308
319 318 318 318 317 316 316 315 314 313 312 311 310 310 310 311 311 310 310 308 306 305 305 305 304 304 305 305 306 306 305 305 305 305 305 305 305 305 305 304 304 303 302 302 302 302 301 301 302 302 302 302 301 302 303 303 304 305 306 305 305 305 304 304 304 304 304 304 304 303 304 304 304 304 305 305 306 306 307 307 307 308 308 308 307
318 317 317 317 316 316 316 314 313 312 311 310 310 310 311 311 310 309 308 306 305 305 304 303 303 304 305 305 305 305 305 305 304 304 304 304 304 304 304 303 302 302 301 301 300 300 299 299 299 301 301 300 300 300 301 301 302 302 304 305 304 304 304 303 303 303 302 302 302 302 302 302 302 303 303 304 305 305 306 306 307 307 307 307 307
317 317 317 317 316 316 315 313 311 310 310 310 310 310 310 310 309 307 306 305 304 303 302 301 302 303 304 304 304 304 304 304 304 304 304 304 304 303 303 302 302 301 301 300 300 299 298 298 298 298 298 298 298 298 299 299 300 300 302 303 303 303 303 302 301 301 301 301 300 300 300 301 301 301 302 303 303 304 305 305 305 306 306 306 306
317 318 317 316 316 314 313 311 310 310 309 309 310 309 308 308 307 306 305 304 302 302 301 300 301 301 301 302 303 303 304 304 304 304 303 303 302 301 301 301 301 301 300 299 299 298 298 297 297 296 297 296 296 296 296 297 297 297 299 301 301 302 302 301 300 300 300 300 300 300 299 300 300 300 301 301 302 303 303 303 303 304 304 304 305
318 317 316 315 314 312 311 310 309 309 309 309 308 308 307 306 304 303 302 302 301 301 301 299 299 299 301 302 303 303 303 303 302 302 301 301 300 299 299 299 299 299 298 299 299 299 298 297 296 296 296 295 295 295 295 295 295 295 296 298 300 300 301 300 300 300 300 300 299 299 299 299 299 300 300 300 301 302 302 301 301 301 302 303 304
317 316 315 314 312 311 310 309 309 308 308 307 307 306 305 303 302 301 301 301 301 300 299 298 299 299 300 302 302 302 303 302 301 300 300 299 299 298 299 299 298 298 298 298 299 299 298 298 297 297 297 296 295 294 295 295 295 295 295 296 298 299 299 300 299 299 299 299 299 298 298 298 299 299 299 299 299 300 300 300 300 300 301 302 302
316 315 314 312 311 309 309 308 308 307 306 306 305 304 302 301 300 300 300 300 299 298 298 298 298 299 300 301 301 302 302 301 300 299 299 299 299 299 299 299 299 299 299 299 299 299 299 299 299 299 298 298 297 295 294 294 294 294 295 295 296 297 298 298 298 298 298 297 297 297 297 298 298 299 298 298 298 298 298 298 299 299 300 300 301
314 313 312 311 310 309 308 307 306 306 305 304 304 303 301 300 300 300 300 299 298 297 297 298 298 299 300 300 301 301 301 300 299 299 299 299 299 300 300 300 300 300 300 300 300 300 300 300 300 299 299 298 298 297 295 294 294 294 294 295 295 296 296 297 297 297 297 296 296 295 296 297 297 298 298 297 297 298 298 298 299 299 299 299 300
314 312 311 309 309 308 307 306 305 304 304 303 303 302 301 300 300 299 299 298 297 297 297 298 298 299 300 300 300 300 300 299 299 299 300 300 300 300 300 300 300 300 300 300 300 300 300 300 300 300 299 298 297 297 296 295 295 295 294 294 295 295 295 296 296 296 295 295 295 295 295 295 296 297 297 297 297 297 298 299 299 299 299 299 299
312 310 309 308 308 307 306 305 304 303 302 302 301 302 301 300 299 299 298 297 297 297 298 299 299 300 300 300 300 299 299 299 299 299 300 300 300 300 300 300 300 300 300 300 300 300 300 300 300 300 299 298 296 295 295 295 296 297 296 295 295 294 294 296 296 296 295 295 295 294 295 295 296 296 297 297 297 297 298 299 299 299 299 299 299
310 309 308 308 307 306 305 304 303 302 302 301 300 301 300 300 299 299 298 297 297 297 298 299 300 300 300 300 299 299 299 299 299 299 299 299 299 299 300 300 301 300 300 299 299 299 300 300 300 300 299 298 296 294 293 293 294 296 297 296 295 295 295 296 297 297 297 296 296 295 296 296 296 297 297 297 297 297 297 298 298 299 299 298 298
309 309 308 308 307 305 304 303 302 302 301 300 300 300 299 299 299 299 298 297 297 298 299 300 300 300 300 299 299 299 299 300 299 299 299 299 298 297 296 296 298 299 300 299 299 298 299 299 299 299 299 297 295 293 292 292 292 293 294 294 294 294 294 294 294 296 297 297 296 296 296 296 296 297 297 297 297 297 297 297 297 298 298 298 298
309 308 308 307 306 305 304 302 302 301 301 300 300 299 299 299 299 299 299 298 298 299 299 300 299 299 299 299 299 299 299 299 297 296 296 296 296 296 294 293 293 294 295 296 297 297 298 297 296 296 297 297 295 293 292 292 292 292 292 292 292 292 293 293 293 294 296 297 296 296 296 296 296 296 296 297 297 296 297 297 297 297 298 298 298
308 308 307 306 305 304 303 302 302 301 301 300 299 299 299 300 299 299 298 297 298 299 299 299 299 299 299 299 300 299 299 298 296 294 293 292 293 293 293 292 292 292 292 293 293 294 295 295 294 293 292 293 292 291 291 292 292 292 292 292 292 292 292 292 293 294 296 296 296 296 296 296 296 296 296 296 296 296 296 296 296 296 297 297 297
308 307 306 305 304 303 303 302 302 301 301 300 300 300 300 300 299 299 298 298 298 299 299 299 299 299 299 299 299 299 298 298 297 295 294 293 293 293 293 293 293 293 293 293 293 292 292 293 293 292 291 291 291 291 291 291 291 291 291 291 291 292 292 292 293 295 296 296 296 296 296 296 296 296 296 296 296 296 296 296 296 296 296 296 296
Wind_Speed
13 11 9 9 7 7 11 12 9 7 8 9 11 13 15 15 16 17 19 20 18 15 15 15 14 13 11 11 10 9 8 7 6 6 5 5 5 5 5 5 5 5 6 6 6 5 5 5 6 7 7 6 6 6 6 7 8 8 9 9 8 7 7 7 8 9 9 10 11 12 14 15 15 16 16 17 17 17 16 17 19 20 20 19 17
13 12 9 9 10 10 11 11 10 9 9 10 12 13 14 15 17 20 21 20 17 15 14 13 13 11 10 10 9 8 7 6 6 6 5 5 5 5 4 4 4 5 5 5 5 5 5 6 6 7 7 7 7 7 7 7 7 7 8 10 9 8 7 7 9 10 9 10 10 12 13 13 13 14 14 14 14 15 14 14 16 17 17 17 17
13 12 11 12 14 15 13 10 9 10 9 10 11 12 14 15 18 22 21 18 15 14 13 11 11 10 9 9 8 7 7 7 7 6 5 5 5 4 4 4 4 4 5 5 5 5 5 6 6 7 8 8 8 7 7 7 7 8 9 9 9 9 9 8 9 9 9 9 10 12 12 11 12 12 11 11 11 12 13 13 14 14 15 16 18
13 13 13 14 14 15 15 13 10 10 11 11 11 12 14 16 19 21 20 16 14 14 13 11 11 11 9 9 8 7 7 7 6 5 4 4 3 3 4 4 4 4 4 5 5 6 6 7 7 8 8 9 9 8 8 9 9 9 9 10 10 10 10 9 9 9 9 9 9 12 13 12 11 8 8 10 11 11 12 12 13 14 14 15 17
13 13 14 15 15 14 15 15 12 11 12 12 13 13 14 16 19 20 18 15 14 14 12 11 11 11 9 8 8 7 6 5 5 4 3 3 3 3 3 3 3 3 4 4 6 7 7 7 8 8 9 9 9 9 9 9 10 11 11 11 11 11 10 10 10 11 11 10 11 13 12 12 12 11 12 12 10 11 12 12 13 14 14 14 16
13 14 15 15 14 14 15 15 14 12 12 13 14 15 16 18 20 19 17 15 14 13 12 11 10 9 9 7 7 6 5 5 5 4 4 4 4 3 3 3 3 3 4 4 5 6 6 7 8 9 10 10 9 9 10 10 11 12 12 11 12 12 13 12 12 13 14 14 14 15 14 14 16 16 16 15 12 11 12 13 15 15 15 15 16
15 15 14 14 14 16 16 14 14 13 13 14 16 17 19 21 20 17 16 14 12 13 12 10 9 8 8 7 7 6 6 6 6 6 6 5 5 4 4 3 3 3 4 5 5 6 6 8 9 9 10 10 10 10 11 11 11 10 11 11 12 13 14 14 14 14 16 17 16 16 17 17 18 18 17 18 17 15 13 13 15 17 17 17 17
17 17 15 14 14 16 16 15 16 15 15 16 17 19 20 19 17 15 14 13 12 12 11 10 9 8 7 6 7 6 6 7 6 6 7 6 5 5 4 4 4 5 6 7 6 6 7 7 8 8 8 8 10 10 10 11 11 11 11 12 12 13 14 15 15 15 15 17 16 17 18 17 18 19 19 18 19 21 19 16 16 16 16 17 18
16 16 15 14 14 14 15 17 19 18 18 18 18 19 18 16 14 13 13 12 12 12 11 10 9 7 6 6 7 7 7 7 5 5 5 4 4 4 3 2 3 4 6 7 6 6 7 7 7 7 7 7 8 8 9 9 11 11 11 12 12 13 14 15 16 16 16 17 17 17 18 18 18 19 19 19 20 22 23 20 17 15 16 17 17
16 16 15 15 15 14 16 17 19 20 19 19 18 17 16 15 14 13 13 12 11 11 10 9 8 7 6 6 7 7 7 6 5 4 4 3 3 3 3 3 4 5 6 7 9 8 7 8 8 7 7 7 7 7 7 8 10 11 11 12 12 13 14 14 16 17 17 17 17 17 17 17 18 18 19 20 19 21 23 23 22 19 20 19 17
18 18 17 16 15 16 17 19 22 23 22 21 20 17 16 15 14 13 12 11 10 10 10 9 8 8 7 7 6 6 5 5 4 4 3 3 4 4 4 3 3 5 5 6 9 8 7 8 8 7 7 7 6 6 7 8 9 10 11 11 12 13 13 14 15 16 16 17 17 18 18 17 18 19 19 19 19 21 23 24 24 22 22 22 20
20 21 19 18 18 18 19 23 26 26 25 23 20 18 16 15 14 13 12 10 10 9 8 7 7 7 7 6 6 6 5 5 4 5 3 3 4 2 2 2 2 3 4 5 7 7 7 7 8 7 7 7 7 7 8 8 9 9 10 10 11 12 13 14 14 14 15 16 17 17 18 18 18 18 19 19 19 20 22 23 24 23 23 23 21
21 21 19 20 21 21 23 26 27 27 25 22 20 17 16 15 13 12 11 10 9 8 6 5 5 5 5 4 4 4 4 4 3 3 2 1 2 1 1 2 2 3 5 6 6 7 7 7 7 7 8 8 9 10 10 10 10 10 10 10 11 12 13 14 14 15 15 16 17 17 17 18 18 18 19 20 20 19 20 22 23 22 22 24 22
22 22 22 22 22 24 27 28 28 26 24 22 20 17 16 15 12 10 11 10 8 8 6 6 5 4 3 2 2 2 2 2 1 1 1 0 1 1 1 2 2 4 6 8 8 8 8 8 8 8 9 9 10 11 12 12 12 11 10 11 11 11 13 14 15 16 17 17 17 17 17 18 18 19 19 20 20 19 19 21 22 21 22 23 23
24 23 24 23 23 28 30 27 26 25 24 22 19 17 17 16 12 11 12 11 9 8 7 5 4 1 1 2 2 2 2 2 1 1 1 1 2 2 3 4 4 5 7 9 9 8 8 8 9 9 10 10 11 11 12 11 12 13 13 13 13 11 12 14 15 16 17 17 18 18 19 18 18 18 18 20 20 20 20 21 21 21 21 22 21
25 26 27 25 25 29 28 26 25 22 21 20 18 17 17 15 13 12 12 11 9 7 5 3 1 3 4 5 4 3 2 0 1 2 2 3 3 4 5 6 7 7 8 9 9 9 9 10 10 11 11 11 11 12 12 12 13 14 14 14 13 12 12 14 15 16 16 16 17 18 18 19 18 18 18 19 20 20 20 21 21 21 21 22 21
24 26 26 24 24 26 26 26 26 21 18 17 16 15 14 13 13 12 11 10 8 5 2 1 3 4 4 4 3 1 1 1 2 2 3 3 4 5 6 7 7 7 8 8 8 9 10 11 11 11 12 12 12 12 13 13 14 15 15 14 13 13 14 15 15 16 16 16 16 15 17 19 19 18 18 18 18 19 19 19 20 20 20 21 21
21 23 24 24 25 26 24 24 23 21 19 17 16 15 13 12 12 11 10 8 6 4 2 0 1 2 2 2 1 1 1 2 1 2 2 3 4 5 6 6 6 6 7 8 8 9 10 10 11 11 12 12 12 13 14 14 15 16 16 16 16 16 16 16 15 14 15 16 17 15 16 17 18 18 19 18 18 19 20 21 21 20 20 20 21
23 26 29 29 25 23 23 24 24 23 22 19 17 16 14 12 11 10 8 5 4 3 1 1 0 0 1 1 1 1 1 1 1 1 2 3 3 4 4 4 5 6 7 8 8 9 10 10 11 11 12 12 13 13 14 15 15 16 17 17 18 18 18 19 17 15 14 15 16 17 17 17 16 18 19 18 18 19 21 22 20 20 19 21 23
30 34 35 28 23 24 28 30 28 26 22 19 17 14 13 12 11 8 6 4 3 2 2 2 2 2 2 2 1 0 1 1 1 1 1 2 3 3 4 4 6 6 7 8 9 9 10 10 11 11 12 12 12 12 13 14 14 15 16 17 18 18 18 19 19 17 16 16 16 16 19 19 17 17 18 17 18 19 21 22 21 20 20 20 22
34 36 34 30 30 33 32 29 26 23 18 16 15 13 13 13 10 7 6 4 3 2 3 3 3 3 3 1 1 1 1 2 2 2 2 3 3 4 4 5 6 7 8 8 9 9 10 10 10 10 11 11 11 12 13 13 14 15 16 16 17 17 17 17 17 17 17 16 16 15 16 18 18 19 19 20 21 20 21 22 21 21 21 21 22
28 30 31 33 37 37 33 27 22 19 18 18 16 14 13 11 7 5 6 5 3 3 4 4 3 3 3 1 1 2 3 4 3 3 3 3 3 4 5 6 7 7 8 8 8 9 9 9 9 9 10 11 12 13 14 16 16 16 17 17 17 17 16 16 16 16 16 14 15 15 14 15 17 18 19 21 22 21 21 22 21 21 22 22 22
25 29 33 35 36 34 32 29 25 23 22 21 18 15 12 10 7 6 5 4 4 3 4 4 4 3 3 3 3 4 4 5 4 3 3 3 3 5 5 6 7 7 8 8 8 8 9 9 9 10 11 13 14 15 16 17 18 17 17 17 17 16 16 17 17 16 15 13 12 13 13 14 16 17 17 18 19 19 19 21 22 22 23 22 21
24 28 32 33 34 33 33 31 28 26 24 21 18 14 12 11 9 7 5 4 4 4 4 4 4 3 3 5 5 5 5 5 5 4 4 4 5 6 6 7 7 8 8 9 9 9 10 10 11 12 13 14 15 16 17 17 17 16 17 16 16 16 17 18 18 17 15 13 12 11 11 13 14 16 17 16 17 19 19 19 21 22 23 22 21
23 26 31 34 36 36 35 32 29 27 24 19 16 13 11 10 8 8 8 7 5 5 4 4 4 4 6 7 7 6 5 5 5 5 5 5 6 7 7 7 8 9 9 10 10 11 12 12 13 14 15 16 16 17 17 17 17 16 15 15 14 15 15 16 16 15 15 14 13 12 11 12 13 15 15 15 17 19 19 19 20 21 22 23 23
26 28 31 34 35 35 34 32 30 27 21 17 14 13 11 10 10 9 8 6 5 4 4 4 5 6 8 8 7 6 5 5 5 5 6 6 7 7 7 8 9 10 10 11 12 12 13 14 14 15 16 16 16 17 18 18 19 18 17 16 16 16 15 14 14 13 13 13 13 12 12 12 13 15 16 16 19 22 23 22 22 22 22 23 26
27 29 30 31 32 32 32 31 29 25 20 16 15 15 13 12 10 8 6 6 5 5 5 6 7 8 8 7 6 5 5 5 5 6 7 7 7 8 9 10 10 10 11 12 13 14 14 15 16 16 16 16 16 17 18 20 21 21 20 20 19 19 18 17 15 13 12 12 13 13 13 12 13 14 16 17 20 22 24 25 25 25 24 23 23
25 26 26 27 28 27 28 29 27 24 20 17 17 16 14 12 9 7 6 6 5 6 7 8 9 8 8 7 6 5 6 6 7 8 8 9 9 10 11 11 11 12 13 14 15 16 14 13 15 17 17 16 17 18 19 20 21 21 21 20 20 20 20 19 17 15 13 13 13 13 13 13 13 14 15 16 19 20 22 24 25 25 25 24 24
25 25 24 25 25 25 28 29 26 22 20 19 19 17 13 10 8 7 6 6 7 8 9 9 9 8 7 6 6 6 7 8 8 9 10 10 11 12 12 12 13 14 16 17 17 17 15 13 15 18 18 18 19 19 20 21 21 21 20 18 18 18 18 18 17 15 15 15 15 15 14 14 13 14 15 17 17 18 20 22 23 23 24 25 25
27 25 24 26 28 28 28 28 24 21 20 20 18 16 12 9 6 5 6 7 9 11 11 9 8 8 7 7 7 8 8 8 9 10 10 11 12 12 13 13 14 16 17 17 16 16 15 14 16 18 19 19 20 20 20 20 20 19 18 17 16 16 16 16 15 15 15 15 15 14 14 13 13 12 13 14 14 15 15 17 19 20 21 22 23
27 25 25 28 31 29 27 27 24 21 20 18 17 14 11 8 6 5 8 10 12 12 11 8 6 7 7 7 8 8 8 8 9 10 11 11 11 12 12 13 14 16 17 16 15 15 15 14 15 18 19 19 19 19 19 19 18 17 16 15 16 16 15 15 15 15 15 14 14 13 13 13 13 13 12 11 12 13 12 12 14 17 18 19 20
26 27 29 30 29 27 25 25 23 21 19 16 15 13 10 8 7 9 12 14 13 12 10 7 6 7 7 8 8 8 8 8 9 10 11 11 10 11 11 12 13 14 15 16 15 15 14 12 13 16 18 18 18 18 18 18 17 15 15 15 15 15 15 16 16 17 17 16 15 14 14 15 15 15 15 13 13 14 14 13 15 15 16 17 17
26 30 33 30 26 25 24 23 21 20 18 16 14 12 9 8 9 12 14 14 13 11 8 8 7 7 7 8 8 8 8 8 9 9 9 10 10 10 11 11 12 12 12 14 15 15 14 12 11 14 17 17 17 17 17 17 16 14 14 15 15 15 16 17 19 20 20 20 19 19 20 20 20 19 18 17 17 16 15 14 14 13 14 16 16
31 32 30 27 26 24 23 22 19 18 19 16 14 11 9 9 12 14 14 13 11 10 9 8 8 7 7 8 8 8 8 8 9 9 9 9 10 10 10 10 11 10 10 11 13 14 14 13 12 12 15 17 17 17 16 16 14 13 13 14 13 14 16 17 19 20 21 22 22 23 23 23 23 24 24 24 23 20 15 13 13 11 11 12 15
35 31 28 26 25 23 21 20 19 19 18 15 12 12 11 12 14 15 14 12 10 10 10 9 8 7 8 9 9 8 8 9 9 9 9 10 10 11 11 11 11 11 11 11 11 12 13 13 12 11 14 17 17 16 16 15 14 13 13 13 12 13 15 17 19 20 21 22 22 22 23 23 24 24 25 26 26 24 19 15 13 12 11 11 14
34 30 28 27 25 22 21 22 22 20 16 13 13 14 14 15 16 14 12 11 10 10 10 8 7 7 9 10 9 9 10 10 10 10 11 11 11 11 11 12 14 16 16 14 12 14 15 14 12 11 13 17 18 17 17 17 15 14 13 12 12 13 15 18 20 21 21 22 22 22 23 23 24 24 24 24 25 25 22 19 17 15 13 12 14
29 26 27 25 22 22 23 24 21 17 14 14 15 15 16 17 16 13 12 12 11 11 9 7 7 9 11 11 10 10 11 11 11 11 11 11 11 11 11 13 16 19 20 18 18 20 20 19 16 13 13 17 20 20 19 18 18 16 13 11 11 12 13 15 18 20 21 22 23 24 24 25 24 24 24 24 23 22 21 20 19 19 17 15 14
28 26 25 24 24 26 26 23 19 16 15 16 16 16 17 18 16 15 14 13 11 10 9 9 10 11 11 11 11 11 11 11 11 12 11 11 11 11 12 15 18 19 20 20 20 21 22 22 22 19 17 20 22 22 21 21 21 19 14 11 11 12 12 13 15 17 19 20 21 24 26 26 25 24 24 23 21 20 19 18 18 18 20 19 17
27 28 29 28 28 29 26 21 18 18 17 17 16 17 17 17 17 16 14 12 12 12 12 12 11 12 12 11 11 11 11 12 12 12 11 11 12 13 15 17 18 18 19 19 19 20 21 22 24 24 23 23 24 24 24 24 24 23 18 13 12 12 13 14 15 15 17 17 18 22 25 25 23 23 23 22 21 19 17 17 16 16 18 19 17
29 32 33 30 29 28 25 22 20 19 19 18 17 17 16 16 16 15 13 14 14 14 14 14 14 15 15 12 11 11 12 12 12 12 12 14 16 18 19 18 17 17 17 18 19 20 22 22 22 23 23 23 24 24 25 26 26 27 25 18 14 13 14 15 15 15 17 18 17 19 23 24 22 23 23 22 21 19 17 16 16 16 16 17 15
34 34 33 31 29 27 24 22 20 20 19 19 18 17 16 16 16 15 15 16 15 14 15 15 16 17 15 12 12 12 12 13 16 17 17 18 19 19 19 18 17 17 18 19 19 19 20 21 21 22 22 23 24 24 24 26 26 28 29 25 19 17 16 15 16 16 18 18 17 18 22 24 23 22 23 23 22 19 17 17 18 19 17 15 13
36 33 32 32 29 26 23 22 21 20 19 18 17 17 17 17 18 17 17 16 16 16 17 18 18 19 17 15 14 13 12 15 19 20 19 19 19 18 18 18 18 18 19 19 18 18 18 19 19 20 21 21 22 23 23 25 26 27 28 28 25 21 17 15 16 17 18 18 18 19 22 23 23 23 24 25 24 23 21 21 22 22 20 17 15
36 34 33 32 29 26 24 23 21 20 18 17 16 17 19 19 19 19 18 18 18 18 19 19 19 20 20 19 16 13 13 16 18 18 18 18 17 17 17 17 16 17 17 17 17 17 17 17 16 17 17 17 19 21 22 22 23 24 25 26 25 23 20 18 17 18 19 19 20 21 22 22 23 24 26 27 28 29 29 29 27 25 23 22 20
36 35 33 30 28 27 25 24 22 20 18 17 16 18 20 20 19 19 19 19 19 19 19 20 21 22 22 21 17 15 15 17 17 16 17 17 17 16 16 15 15 15 15 15 14 14 14 14 14 15 16 15 16 17 19 20 20 21 21 22 22 23 23 21 20 19 19 20 21 22 22 23 24 26 29 30 30 32 33 32 30 27 25 25 24
37 34 31 28 27 27 26 24 22 20 19 17 16 17 20 20 20 20 20 20 20 20 20 21 22 22 21 20 18 17 16 16 16 15 15 15 15 15 14 14 14 14 14 13 13 12 12 13 13 13 15 16 16 15 16 17 18 18 19 19 19 20 21 21 19 19 19 19 20 21 23 24 26 28 29 29 30 33 34 32 30 28 27 27 26
36 33 30 28 28 27 26 24 22 20 19 18 17 16 18 20 21 20 20 20 20 21 22 22 21 20 19 18 17 16 16 16 16 15 14 14 13 13 13 13 13 14 13 12 12 11 11 12 12 13 13 14 16 17 16 15 15 14 15 17 16 17 18 18 17 17 18 18 19 22 23 25 26 27 26 26 28 30 30 30 30 30 30 30 28
35 32 31 30 29 28 26 25 23 20 19 19 19 18 18 20 21 20 20 20 21 21 22 21 20 18 17 16 16 15 15 15 14 14 13 13 13 12 12 12 12 11 11 11 11 12 11 12 11 12 12 13 15 17 19 18 17 14 13 14 14 14 15 14 12 13 14 15 17 20 22 22 23 24 23 23 25 27 28 29 28 28 29 31 30
32 33 32 30 29 28 27 25 23 21 20 20 20 20 20 21 20 19 20 20 21 21 20 19 18 16 15 15 15 15 14 13 12 12 13 13 13 13 14 14 14 12 10 10 11 12 12 12 11 10 10 11 14 17 19 20 20 18 16 15 15 15 14 12 12 14 14 13 15 18 19 21 22 22 23 23 23 24 26 28 28 27 27 28 29
33 33 31 30 29 28 28 26 24 22 22 21 21 21 21 21 20 19 19 21 21 20 18 17 16 16 15 15 14 14 13 13 13 14 15 16 16 16 16 17 17 16 16 14 13 12 13 12 12 12 11 10 12 15 18 19 19 19 18 18 17 17 15 13 16 18 15 13 16 18 19 21 22 22 22 23 23 23 24 26 27 27 27 27 28
35 32 30 29 29 28 28 26 24 23 23 23 23 22 21 19 19 19 19 20 21 19 17 16 16 15 15 14 13 13 13 13 14 16 18 20 20 20 19 20 19 19 19 18 17 16 16 14 13 14 15 14 14 15 16 17 17 17 17 18 18 17 14 15 18 20 17 15 17 19 19 20 21 21 22 22 22 23 23 23 25 26 27 27 27
35 32 30 30 29 29 28 27 25 24 24 24 23 22 20 19 18 18 19 19 19 17 16 15 14 14 14 14 13 13 14 14 15 17 19 20 21 22 21 21 20 20 19 19 19 18 18 17 15 15 16 16 16 16 16 16 15 16 16 17 18 18 17 19 21 20 16 16 17 17 18 19 19 20 22 21 21 22 22 22 23 23 25 26 27
Wind_Direction
129 138 149 145 134 145 171 169 156 166 180 178 175 173 174 177 179 178 175 173 172 174 177 179 180 179 181 184 187 188 184 181 179 183 195 210 225 226 222 226 236 248 258 264 270 283 294 297 305 309 310 308 303 295 287 287 290 293 297 297 291 279 276 279 279 276 276 281 285 287 286 285 282 279 273 267 266 267 266 261 257 256 258 257 257
133 134 133 142 157 155 160 170 159 158 176 180 179 179 178 180 184 181 177 175 176 179 179 180 183 182 180 182 185 186 183 184 189 194 201 218 231 229 232 238 245 255 261 267 275 289 301 304 308 306 301 300 302 300 294 294 295 292 294 298 300 293 284 278 276 277 278 283 289 288 289 288 283 286 288 278 268 265 267 265 260 256 255 253 251
149 150 142 145 157 154 158 171 157 152 171 182 183 182 180 182 185 182 177 176 177 179 179 178 179 179 180 180 182 183 186 190 192 193 199 219 231 235 244 243 243 252 256 265 275 284 295 299 299 298 298 298 298 299 296 294 293 292 294 297 302 298 293 291 286 285 286 289 290 286 292 295 284 283 289 285 279 274 270 264 262 258 255 254 251
156 154 148 150 153 151 161 172 160 152 166 179 186 186 183 182 182 181 178 176 179 182 180 177 177 177 177 180 182 181 183 188 190 192 204 218 226 234 240 238 237 243 253 266 277 284 289 292 294 296 299 299 298 297 294 293 289 287 288 290 291 288 289 293 291 288 286 287 289 287 292 293 287 289 289 281 278 278 276 270 267 265 260 258 256
166 157 156 156 155 161 171 177 171 162 167 175 183 189 187 182 180 179 178 178 183 185 180 176 175 176 175 177 180 179 177 184 190 193 197 198 201 219 231 236 238 246 262 273 280 287 290 292 296 300 300 299 297 295 292 290 288 287 286 286 285 284 284 286 285 287 285 282 282 287 290 287 288 301 302 291 272 263 269 271 271 272 268 263 261
183 170 166 161 160 169 173 176 175 167 166 173 183 190 187 180 178 178 177 180 184 181 175 172 171 176 179 178 183 185 181 180 184 178 173 182 188 199 222 237 246 254 265 271 279 289 293 296 297 297 294 292 291 289 288 288 290 289 288 285 284 286 288 287 287 287 286 283 279 278 277 278 285 293 295 295 284 268 262 258 266 277 276 269 267
187 178 170 163 164 171 171 173 172 166 168 178 187 188 183 180 178 179 178 177 177 174 171 171 174 180 182 186 190 186 184 186 186 186 188 191 187 196 217 223 229 239 247 253 261 272 283 290 289 286 282 280 279 277 281 287 289 288 286 285 286 288 290 289 289 288 287 287 286 280 276 274 278 281 283 290 291 284 269 257 266 278 277 275 277
184 180 176 169 166 168 171 175 174 170 171 177 182 180 180 182 179 175 174 170 169 169 169 173 177 178 183 196 192 182 192 197 191 193 193 188 187 195 209 214 218 227 236 244 256 275 286 288 287 287 286 282 277 274 276 278 278 280 282 286 288 288 288 287 287 288 287 287 287 285 283 280 276 274 275 278 281 282 280 274 274 272 269 274 277
182 179 175 172 168 163 165 171 171 168 169 173 176 177 178 177 170 167 168 166 168 167 166 173 178 179 186 195 187 180 190 191 182 188 185 183 201 210 220 240 250 257 260 264 280 300 302 299 298 296 296 294 288 283 280 274 273 277 278 281 283 283 284 284 285 287 286 286 286 286 285 284 279 276 275 272 272 277 281 282 283 277 270 269 269
179 173 169 170 169 163 159 161 161 160 163 167 169 173 172 167 163 163 165 164 168 169 170 175 177 180 185 186 182 177 181 178 173 184 183 192 229 248 259 264 273 280 281 284 292 302 305 304 303 300 299 299 295 289 287 285 282 282 280 278 276 275 276 277 280 284 284 283 284 284 283 284 283 280 279 277 272 272 277 282 284 283 279 277 271
175 170 168 168 168 164 156 152 154 155 160 166 168 167 166 164 162 163 165 167 170 175 180 182 179 181 183 180 179 176 175 169 170 189 202 228 242 256 265 265 271 272 277 288 297 306 308 306 306 308 309 306 303 296 290 288 286 285 286 286 284 283 280 277 276 276 277 278 279 279 280 282 284 283 283 280 274 273 277 282 284 283 282 282 278
172 168 166 166 165 162 156 155 157 158 163 170 171 168 166 167 169 171 171 172 176 178 184 185 180 181 178 172 176 179 177 174 185 205 213 238 249 260 276 277 279 277 287 300 307 313 313 311 315 317 316 313 312 309 302 296 292 290 290 289 288 289 288 286 282 278 275 276 278 278 280 281 280 281 282 280 277 278 280 281 284 287 286 285 282
170 168 167 169 166 162 161 161 161 161 164 168 168 169 169 170 175 176 168 167 175 176 177 175 166 168 169 169 182 187 184 183 198 217 218 241 259 273 304 283 292 303 314 320 320 322 319 316 317 317 318 322 323 322 318 311 305 299 294 292 290 288 289 287 283 280 275 275 278 279 280 280 279 277 277 278 279 281 282 282 284 287 286 286 287
173 172 172 173 170 165 162 160 161 161 159 161 164 165 161 160 164 166 160 161 166 159 155 150 142 144 150 167 192 197 205 210 204 221 233 296 294 299 321 319 320 322 326 328 325 323 320 319 320 323 326 328 327 325 320 316 313 307 300 296 293 289 288 286 284 282 278 275 275 275 276 276 276 276 276 278 280 280 279 281 285 286 285 286 288
177 175 176 177 172 163 158 157 160 159 156 155 158 157 156 156 154 152 152 153 148 140 136 132 132 149 236 286 281 257 243 237 236 261 308 339 335 330 332 338 336 331 329 327 324 324 325 328 332 335 336 334 330 326 321 316 312 311 307 302 298 293 288 284 283 283 281 278 274 273 274 274 274 276 277 277 277 276 277 279 283 286 286 287 289
180 179 175 172 167 161 157 153 151 151 155 155 153 154 159 158 151 148 145 140 139 139 141 147 249 292 307 316 308 276 261 266 329 343 357 351 346 339 335 339 338 332 329 327 328 330 333 336 338 338 337 335 331 325 321 316 313 313 311 307 302 295 288 284 280 278 279 279 278 276 275 273 274 275 276 276 275 275 277 279 281 281 281 283 287
178 174 167 163 160 153 148 147 147 147 153 156 154 154 156 153 150 147 140 135 137 141 157 239 292 307 322 332 331 309 346 57 37 9 5 354 349 344 337 336 332 329 330 331 335 338 340 341 341 341 338 336 331 327 322 318 316 315 312 309 306 300 295 293 289 283 278 275 274 275 275 275 277 278 278 277 277 276 275 276 278 277 275 276 280
166 162 158 153 147 138 137 147 155 157 159 161 160 155 152 150 148 142 136 135 131 128 139 265 307 323 344 354 13 57 73 73 48 18 9 358 348 338 331 327 325 332 339 342 347 348 346 345 342 340 338 334 331 327 323 320 318 316 315 314 313 310 306 305 301 294 287 279 271 268 272 276 277 278 279 278 277 276 275 276 277 276 272 270 272
152 147 143 139 140 143 151 157 160 163 167 164 157 154 154 152 148 144 145 149 144 136 131 73 28 83 85 92 103 88 95 80 22 24 18 360 344 331 327 331 342 354 357 355 355 351 347 345 342 340 337 334 331 328 325 324 322 321 320 320 319 317 314 312 308 302 297 290 279 270 266 268 273 276 276 277 278 276 277 278 276 273 271 270 271
149 146 146 148 158 163 161 159 160 164 168 162 158 159 162 167 171 168 167 177 172 132 105 98 100 118 117 119 144 149 105 88 51 46 34 13 359 345 348 359 3 4 2 358 354 351 349 348 347 344 341 340 337 336 334 332 331 329 327 325 322 320 317 317 315 309 303 295 288 280 268 263 271 278 276 275 277 277 278 279 274 272 271 269 272
155 157 160 162 165 165 163 160 159 161 164 164 165 169 172 180 184 171 154 152 144 111 108 114 114 116 113 118 165 147 99 94 93 80 59 40 20 7 6 10 10 7 3 360 356 354 353 353 354 352 350 349 348 347 346 343 342 340 337 333 330 327 325 324 323 320 314 299 288 286 279 270 272 280 281 277 276 277 281 279 273 272 274 273 275
156 160 161 158 161 165 162 157 154 158 166 169 169 172 179 183 172 144 132 123 118 116 114 116 118 113 106 105 121 105 97 93 92 84 69 54 33 21 18 14 14 13 7 3 1 359 359 0 2 2 359 356 356 356 355 353 352 350 349 347 343 341 338 335 333 332 329 315 294 288 292 289 284 284 287 282 276 276 282 283 277 273 274 275 276
154 156 157 158 162 162 157 154 158 163 166 169 168 169 178 176 162 152 144 123 112 115 109 105 107 105 102 103 104 103 101 93 87 86 78 67 49 33 28 19 17 17 12 10 10 8 10 11 11 11 7 5 5 5 3 0 359 359 358 356 352 351 349 348 347 344 340 334 314 298 296 300 297 295 296 290 281 280 285 287 284 280 278 276 276
154 155 156 157 158 160 160 159 160 162 164 167 165 166 174 171 163 163 164 149 120 106 106 101 98 106 113 113 112 108 100 90 86 83 72 60 48 37 29 22 19 20 20 20 20 19 19 19 18 16 13 13 13 12 9 6 4 3 2 358 358 358 357 356 357 355 350 347 338 324 313 308 306 303 304 302 291 286 287 287 287 287 285 283 279
149 152 154 156 157 161 165 161 158 160 162 158 153 158 167 164 159 167 177 171 142 118 119 105 92 110 121 116 113 108 99 89 80 71 61 51 45 39 32 28 27 28 28 27 26 24 24 23 22 22 21 21 21 18 16 12 9 7 1 358 1 2 359 358 358 357 356 352 345 337 328 317 309 304 304 304 296 292 292 291 290 289 287 287 284
147 149 152 155 156 159 162 159 156 155 151 144 143 149 156 157 160 166 171 163 144 126 118 111 111 120 121 116 112 107 98 84 69 62 57 53 50 45 41 38 37 36 34 32 30 28 29 30 30 29 30 30 28 25 23 21 18 15 8 5 6 4 360 356 352 349 349 347 342 334 323 312 303 298 296 298 295 292 292 293 293 293 292 291 290
147 149 152 154 154 154 155 153 148 143 138 137 144 152 155 153 151 148 138 128 122 112 108 116 124 124 117 114 110 102 91 77 67 63 61 60 59 53 50 47 44 44 42 38 36 34 36 40 40 40 38 36 33 30 27 26 23 20 18 15 11 7 5 2 355 349 346 344 342 335 325 316 308 300 295 295 294 292 291 292 292 292 294 293 294
147 149 152 151 148 146 145 141 135 133 134 140 148 154 151 143 137 130 124 118 113 111 109 110 117 120 117 114 107 92 83 76 70 70 69 66 62 57 55 54 51 51 51 49 47 46 45 45 44 44 40 33 30 28 25 23 21 21 21 19 13 9 8 7 3 356 350 347 345 339 332 326 321 315 309 303 302 302 299 296 293 291 291 290 291
147 148 149 145 142 142 140 135 131 132 137 145 152 152 146 139 134 126 119 114 113 115 112 107 105 107 110 107 94 84 81 76 74 74 71 66 63 61 60 58 56 57 57 55 53 51 50 47 44 42 37 31 28 26 23 20 19 19 20 17 14 12 10 8 5 0 358 355 351 346 341 334 328 322 316 309 307 305 301 297 296 297 297 294 293
147 146 145 142 141 142 140 138 137 139 140 145 151 151 147 145 143 136 124 116 119 122 121 119 109 98 99 97 88 84 81 78 77 73 69 65 63 63 61 59 58 59 59 57 53 52 51 48 45 42 36 31 29 27 25 23 21 19 17 16 15 13 12 8 4 3 3 0 356 349 342 336 329 322 316 314 314 310 304 303 305 305 305 303 300
146 142 141 143 145 146 146 144 141 138 138 143 150 151 146 143 142 140 132 126 127 130 130 129 116 96 93 93 89 86 81 78 76 70 69 68 65 64 63 61 61 61 61 58 55 53 52 49 45 42 37 33 30 29 27 26 24 20 17 18 18 16 16 14 10 9 9 7 2 353 345 340 338 333 325 322 324 320 315 316 316 312 309 306 303
144 142 144 146 148 148 148 147 142 139 141 146 152 151 146 142 140 139 139 137 135 134 132 126 112 94 91 94 92 88 83 80 77 73 72 71 68 69 66 65 65 63 60 58 55 52 51 48 45 41 37 33 30 28 25 25 25 21 22 28 29 27 27 28 28 26 24 21 17 13 10 6 2 355 343 335 330 324 323 326 327 325 320 313 309
144 147 149 149 147 147 151 152 146 144 150 152 152 152 146 140 142 143 143 140 136 133 130 124 114 103 98 97 94 91 88 85 82 79 79 76 74 74 70 68 67 64 60 57 54 52 50 47 44 41 38 34 29 26 25 27 25 21 29 39 40 39 39 39 39 38 34 31 28 28 28 24 19 13 3 358 350 335 329 334 335 335 330 322 318
142 147 152 152 150 151 154 152 145 148 154 150 147 151 148 141 144 146 143 139 136 133 130 125 119 108 98 94 93 94 92 89 88 86 85 82 78 75 73 70 66 63 60 57 52 49 48 46 44 42 38 34 31 26 26 29 25 21 32 43 42 41 41 39 40 38 34 32 30 28 26 23 20 17 13 11 7 356 348 347 345 344 341 334 332
147 151 154 155 155 153 151 151 153 155 153 143 137 144 147 145 146 146 143 138 135 132 130 126 119 108 100 96 95 97 94 91 91 90 88 84 79 76 74 70 68 66 62 58 54 50 47 45 45 43 39 36 33 27 26 29 26 24 34 40 38 39 39 36 36 34 31 29 27 23 20 15 13 12 10 8 7 5 4 1 357 353 349 351 355
155 154 153 155 155 152 151 157 160 155 146 141 142 145 148 148 147 145 142 137 134 132 128 124 118 111 104 99 98 99 97 95 93 91 88 84 80 79 76 71 69 67 63 59 56 53 50 47 46 45 40 37 33 28 26 26 23 26 37 39 34 36 36 33 31 28 25 22 18 15 11 6 3 2 1 0 359 1 4 6 6 6 359 358 4
156 153 151 152 150 150 155 157 154 148 144 147 150 152 152 149 145 143 142 138 134 130 124 122 122 113 102 101 104 104 100 97 95 91 88 85 82 81 80 75 73 70 66 61 56 54 52 50 48 48 43 38 36 31 28 27 24 27 37 37 31 31 30 27 24 19 16 14 10 7 2 357 356 354 353 353 352 353 359 2 3 5 3 2 4
155 151 149 148 150 157 161 155 147 145 148 151 155 157 155 150 146 145 143 140 135 130 128 129 122 109 104 107 107 104 100 97 95 92 89 87 85 83 82 79 76 73 70 66 62 58 57 53 51 52 51 46 43 39 36 35 32 33 38 34 27 27 24 21 18 13 12 12 10 9 5 360 358 355 352 352 350 349 352 354 356 359 359 2 4
155 155 156 155 158 163 163 157 149 147 148 152 156 156 154 151 149 146 143 140 136 131 130 129 119 109 108 109 104 101 100 96 94 94 90 89 87 85 84 81 77 74 73 71 68 65 63 60 56 56 56 54 50 47 45 44 41 41 43 40 31 29 26 22 20 18 19 20 18 16 12 8 6 5 2 360 356 354 354 353 353 354 355 2 8
156 162 161 159 159 161 160 156 152 149 150 152 152 151 152 151 147 144 143 138 132 129 129 125 119 114 112 108 103 100 98 96 95 94 92 91 89 85 84 82 80 80 78 75 73 69 65 63 59 57 58 55 53 51 49 49 47 45 46 45 40 36 32 29 29 28 27 25 24 22 18 15 15 16 14 12 8 5 6 4 2 1 358 3 9
163 163 160 158 158 158 155 154 154 153 152 152 152 153 152 148 142 139 136 132 129 131 131 126 122 118 113 107 103 100 98 97 97 95 93 92 89 85 84 83 82 82 81 77 74 69 65 63 59 56 54 51 50 49 47 47 46 45 44 44 45 47 44 37 35 35 32 28 28 27 25 22 22 24 26 26 22 19 22 24 22 19 11 7 9
162 159 158 158 157 155 155 156 156 155 152 152 156 154 145 139 137 134 131 131 131 132 130 126 122 119 114 109 106 102 100 99 98 96 93 90 88 86 85 84 82 81 80 78 75 72 67 63 59 54 49 45 42 43 44 44 43 43 43 42 43 48 51 45 39 38 36 33 30 30 29 27 27 31 35 36 36 37 38 36 34 30 25 21 21
158 159 160 158 155 155 157 156 152 150 148 150 153 146 139 138 138 135 134 133 132 129 128 126 122 119 116 112 108 103 102 101 99 96 93 90 88 86 85 84 82 79 78 75 74 71 68 64 59 54 50 44 38 36 39 42 42 41 42 42 41 45 51 51 46 43 42 40 38 37 35 34 35 39 41 40 41 43 41 36 32 31 31 30 28
160 161 161 158 155 155 154 150 147 144 143 146 149 144 142 143 139 136 135 133 131 130 129 126 123 120 115 111 108 105 104 103 99 94 92 91 89 87 86 84 81 79 77 74 72 69 65 62 58 54 50 47 41 35 34 40 43 41 41 42 40 42 48 52 50 47 44 42 41 42 42 43 45 46 45 42 42 44 42 36 32 30 30 31 30
162 161 159 157 155 154 151 145 143 141 140 145 152 150 147 144 138 135 135 133 131 131 128 125 122 119 116 113 112 110 108 105 100 95 92 89 87 86 85 83 80 78 76 73 71 68 66 62 58 53 48 45 44 41 36 36 38 36 37 42 41 40 47 52 50 47 45 43 43 45 47 47 47 46 43 40 39 41 38 34 32 32 31 31 31
160 157 156 154 153 152 148 143 140 141 143 148 153 153 150 144 137 135 134 134 135 134 129 125 121 118 116 115 112 110 107 104 100 95 91 89 88 87 83 78 76 74 73 73 71 67 64 60 56 53 48 42 42 45 45 44 41 32 30 37 40 39 45 49 46 43 42 42 44 46 46 44 42 40 37 34 34 36 36 32 31 32 33 32 32
158 157 155 155 153 150 146 142 140 142 146 150 152 153 149 142 136 135 136 137 138 136 130 126 123 121 120 118 115 111 106 99 94 90 87 86 86 88 89 87 80 73 69 68 68 67 64 60 55 52 49 45 44 46 49 51 52 47 36 35 38 39 42 45 45 43 36 32 36 38 38 38 39 37 35 33 31 32 35 35 33 33 34 34 34
156 157 156 155 152 150 146 142 140 142 146 149 150 148 143 137 134 135 137 138 138 134 129 126 125 124 123 121 117 112 106 102 102 101 98 95 90 88 94 98 96 93 87 77 71 69 64 59 57 57 51 46 46 48 49 48 49 50 49 45 45 46 46 48 55 56 43 29 31 35 33 34 36 36 34 33 32 31 32 35 35 35 35 35 35
157 157 157 155 153 151 146 142 140 143 145 147 146 142 137 134 134 137 140 140 137 132 129 128 128 125 124 121 116 111 106 105 109 114 114 111 104 97 95 95 94 94 94 91 87 83 76 68 67 70 69 61 52 51 50 48 46 46 46 46 46 47 50 56 62 63 54 38 35 37 35 33 33 33 32 31 30 31 31 32 34 35 35 36 36
158 155 156 156 154 151 147 143 142 144 145 145 143 139 136 136 137 139 142 141 135 131 130 129 127 127 126 122 119 116 111 107 108 111 111 107 104 101 99 96 92 89 88 87 86 86 85 81 75 72 72 70 64 58 55 51 48 45 45 47 47 47 52 61 64 60 51 42 39 38 35 33 32 32 31 29 28 29 29 29 31 33 34 36 37
157 155 155 156 154 152 148 145 144 145 146 145 142 140 139 140 140 141 142 139 134 132 132 131 130 131 129 126 123 121 119 116 114 111 107 104 102 100 97 95 92 88 85 83 80 79 79 80 77 72 69 66 64 61 59 56 53 50 48 50 52 51 56 63 63 56 47 41 39 36 33 33 32 31 31 30 28 29 29 29 30 31 32 34 36